Weather History for Salinas, CA

Change the Weather History Date:

Saturday, March 2, 2013

  Actual Average Record
Temperature  
Mean Temperature 64 °F 54 °F  
Max Temperature 76 °F 64 °F 83 °F (1994)
Min Temperature 51 °F 44 °F 27 °F (1953)
Degree Days  
Heating Degree Days 1 11  
Month to date heating degree days 5 22  
Since 1 July heating degree days 1760 1836  
Cooling Degree Days 0 0  
Month to date cooling degree days 0 0  
Year to date cooling degree days 0 0  
Growing Degree Days 13 (Base 50)    
Moisture  
Dew Point 47 °F    
Average Humidity 60    
Maximum Humidity 89    
Minimum Humidity 31    
Precipitation  
Precipitation 0.00 in 0.08 in 0.93 in (1976)
Month to date precipitation 0.00 0.17  
Year to date precipitation 1.60 5.26  
Since 1 July precipitation 8.24 9.37  
Sea Level Pressure  
Sea Level Pressure 30.17 in    
Wind  
Wind Speed 11 mph (WNW)    
Max Wind Speed 18 mph    
Max Gust Speed 22 mph    
Visibility 9 miles    
Events      
T = Trace of Precipitation, MM = Missing Value Source: NWS Daily Summary

Daily Weather History Graph

Daily Weather History Graph

Search for Another Location

Airport:

Trip Planner

Search our weather history database for the weather conditions in past years. The results will help you decide how hot, cold, wet, or windy it might be!

Date:

Astronomy

Mar. 02, 2013 Rise Set
Actual Time 6:35 AM PST 6:02 PM PST
Civil Twilight 6:09 AM PST 6:28 PM PST
Nautical Twilight 5:39 AM PST 6:58 PM PST
Astronomical Twilight 5:09 AM PST 7:28 PM PST
Moon 11:37 PM PST (3/2) 9:16 AM PST (3/2)
Length of Visible Light 12h 18m
Length of Day
11h 26m
Waning Gibbous, 73% of the Moon is Illuminated
Mar 2
Waning Gibbous
Mar 4
Last Quarter
Mar 11
New
Mar 19
First Quarter
Mar 27
Full

Hourly Weather History & Observations

Time (PST) Temp. Dew Point Humidity Pressure Visibility Wind Dir Wind Speed Gust Speed Precip Events Conditions
12:53 AM 54.0 °F 46.9 °F 77% 30.25 in 10.0 mi ESE 11.5 mph - N/A   Clear
1:53 AM 55.0 °F 45.0 °F 69% 30.24 in 10.0 mi ESE 13.8 mph - N/A   Clear
2:53 AM 54.0 °F 44.1 °F 69% 30.22 in 10.0 mi East 12.7 mph - N/A   Clear
3:53 AM 54.0 °F 43.0 °F 66% 30.21 in 10.0 mi East 12.7 mph - N/A   Clear
4:53 AM 53.1 °F 42.1 °F 66% 30.20 in 10.0 mi East 13.8 mph - N/A   Clear
5:53 AM 53.1 °F 42.1 °F 66% 30.20 in 10.0 mi ESE 17.3 mph - N/A   Clear
6:53 AM 53.1 °F 42.1 °F 66% 30.20 in 10.0 mi East 16.1 mph - N/A   Clear
7:53 AM 55.0 °F 43.0 °F 64% 30.22 in 10.0 mi ESE 12.7 mph - N/A   Clear
8:53 AM 59.0 °F 44.1 °F 58% 30.23 in 10.0 mi ESE 10.4 mph - N/A   Clear
9:53 AM 64.9 °F 46.0 °F 50% 30.21 in 10.0 mi ESE 13.8 mph - N/A   Clear
10:53 AM 69.1 °F 48.0 °F 47% 30.19 in 10.0 mi ESE 8.1 mph - N/A   Clear
11:53 AM 75.0 °F 43.0 °F 32% 30.18 in 10.0 mi SE 8.1 mph - N/A   Clear
12:53 PM 70.0 °F 43.0 °F 38% 30.17 in 10.0 mi West 11.5 mph - N/A   Clear
1:53 PM 70.0 °F 45.0 °F 41% 30.14 in 10.0 mi NW 9.2 mph - N/A   Clear
2:53 PM 61.0 °F 48.9 °F 64% 30.13 in 10.0 mi WNW 12.7 mph - N/A   Clear
3:53 PM 55.9 °F 48.9 °F 77% 30.14 in 10.0 mi West 13.8 mph - N/A   Clear
4:35 PM 53.6 °F 48.2 °F 82% 30.11 in 9.0 mi West 9.2 mph - N/A   Scattered Clouds
4:44 PM 53.6 °F 48.2 °F 82% 30.10 in 9.0 mi West 11.5 mph - N/A   Mostly Cloudy
4:53 PM 53.1 °F 48.9 °F 86% 30.13 in 9.0 mi West 10.4 mph - N/A   Mostly Cloudy
5:03 PM 53.6 °F 48.2 °F 82% 30.10 in 9.0 mi West 11.5 mph - N/A   Scattered Clouds
5:38 PM 53.6 °F 48.2 °F 82% 30.11 in 8.0 mi West 15.0 mph - N/A   Mostly Cloudy
5:53 PM 52.0 °F 48.9 °F 89% 30.16 in 7.0 mi West 13.8 mph - N/A   Overcast
6:21 PM 51.8 °F 48.2 °F 88% 30.14 in 5.0 mi NW 11.5 mph - N/A   Overcast
6:53 PM 52.0 °F 48.9 °F 89% 30.18 in 9.0 mi WNW 9.2 mph - N/A   Overcast
7:53 PM 51.1 °F 48.9 °F 92% 30.18 in 9.0 mi WNW 6.9 mph - N/A   Overcast
8:41 PM 51.8 °F 48.2 °F 88% 30.16 in 7.0 mi West 3.5 mph - N/A   Mostly Cloudy
8:53 PM 52.0 °F 48.9 °F 89% 30.19 in 8.0 mi NW 4.6 mph - N/A   Mostly Cloudy
9:05 PM 51.8 °F 48.2 °F 88% 30.16 in 7.0 mi WNW 4.6 mph - N/A   Mostly Cloudy
9:53 PM 51.1 °F 48.0 °F 89% 30.17 in 7.0 mi ENE 6.9 mph - N/A   Mostly Cloudy
10:16 PM 51.8 °F 48.2 °F 88% 30.14 in 7.0 mi ESE 9.2 mph - N/A   Partly Cloudy
10:53 PM 51.1 °F 48.9 °F 92% 30.16 in 7.0 mi Calm Calm - N/A   Clear
11:53 PM 52.0 °F 48.0 °F 86% 30.15 in 7.0 mi West 3.5 mph - N/A   Clear